Theta_e
301 302 304 305 305 306 306 306 306 306 307 307 307 308 307 308 308 308 308 308 308 309 309 309 309 310 312 315 317 318 319 319 319 320 320 320 321 321 321 322 322 323 323 323 323 323 323 323 323 322 322 321 321 320 319 319 319 319 319 319 318 317 315 314 312 308 305 302 300 298 298 298 298 299 300 301 301 301 301 301 302 302 302 302 302
301 302 303 304 305 305 306 306 306 306 306 307 307 307 307 307 307 307 307 307 307 307 307 308 308 309 310 311 312 313 314 315 315 316 317 317 318 319 319 319 319 320 320 320 320 320 320 321 321 320 320 320 319 319 318 318 318 318 318 318 318 317 315 314 313 309 306 303 301 299 298 298 298 298 299 300 300 300 301 301 301 301 301 302 302
302 302 303 304 305 305 306 306 306 306 306 306 307 306 306 306 306 306 306 306 306 306 306 306 307 307 307 308 308 308 309 309 310 310 310 311 312 313 314 315 316 316 317 317 318 318 318 318 318 318 317 317 318 318 317 317 317 317 317 317 317 316 315 314 313 311 308 305 301 299 298 297 297 298 299 299 299 300 300 300 301 301 301 301 301
302 303 304 304 305 306 306 306 306 306 306 306 306 306 306 307 306 306 306 306 306 306 306 306 306 306 306 306 306 307 307 306 307 306 307 306 307 307 307 308 308 310 311 313 314 315 316 316 316 316 315 315 315 315 315 315 315 315 315 315 315 314 314 313 312 311 309 306 302 299 297 297 297 298 298 299 299 299 299 300 300 300 301 301 301
301 303 304 304 305 305 305 306 306 306 306 306 306 306 306 307 307 307 307 307 307 306 306 306 306 306 306 306 306 306 305 305 305 305 305 305 305 305 305 305 304 305 305 306 307 309 310 312 313 313 313 313 314 313 313 313 312 312 313 312 312 312 312 312 311 310 309 308 304 300 298 297 297 298 298 298 298 299 299 299 299 300 300 300 301
301 302 302 303 304 304 304 304 305 306 306 305 306 306 306 306 306 306 306 306 306 306 306 306 306 306 306 305 305 305 305 305 304 304 303 304 304 304 304 304 304 304 304 304 304 304 305 306 307 309 310 311 312 312 312 312 311 311 311 310 310 310 309 309 309 308 308 308 305 302 300 298 297 297 297 298 298 298 299 299 299 299 299 300 300
300 301 301 302 302 303 303 303 304 305 304 304 305 305 305 305 305 305 305 305 305 305 305 305 305 305 305 305 305 305 305 305 304 304 304 303 303 304 304 304 304 304 304 304 304 304 304 304 304 305 306 307 309 309 310 310 310 310 310 309 308 308 307 307 307 307 306 306 305 303 301 299 298 297 297 297 297 298 298 298 299 299 299 299 300
299 300 300 301 301 302 302 303 303 303 303 304 304 304 304 304 304 304 304 304 304 304 304 304 304 304 304 304 304 304 304 303 303 303 303 303 303 304 304 304 303 303 303 303 303 303 303 303 303 303 303 304 305 306 307 308 308 309 309 308 308 307 306 305 305 305 305 304 304 304 302 300 299 297 297 297 297 297 297 298 298 298 299 299 300
299 299 300 300 301 301 302 302 302 302 302 303 303 303 303 303 303 303 303 303 302 303 303 303 302 302 302 302 303 302 302 302 302 302 302 302 302 303 303 303 303 303 303 303 302 302 302 302 302 302 302 302 302 303 303 304 305 306 306 307 307 306 305 304 304 304 304 303 303 303 303 302 300 298 298 297 297 297 297 297 297 298 298 298 299
298 298 299 300 300 301 301 302 302 302 302 303 303 303 302 302 302 302 302 301 301 301 301 302 301 301 301 301 301 301 301 301 301 301 301 301 301 301 301 302 302 302 302 302 302 302 301 301 301 301 301 301 301 302 301 302 302 303 304 305 305 305 305 304 303 303 303 303 302 302 301 301 300 299 298 297 297 297 297 297 297 297 297 298 298
298 299 299 300 300 301 301 301 302 302 302 302 302 302 302 302 301 301 301 300 300 300 301 301 301 301 301 300 300 300 300 300 300 300 300 300 300 300 300 300 300 301 301 301 301 301 301 301 301 300 300 300 301 301 300 300 301 301 302 302 303 303 304 304 303 303 302 302 301 301 300 300 299 299 298 298 297 297 297 297 297 297 297 297 297
298 299 300 300 300 301 301 301 301 301 301 301 301 301 300 300 300 300 300 300 300 300 300 300 300 300 300 299 299 299 299 299 299 299 298 298 298 298 298 298 299 299 299 300 300 300 301 301 300 300 300 300 300 300 299 299 299 300 300 300 301 301 301 302 302 302 302 301 301 301 300 299 298 298 298 298 297 297 297 296 296 297 297 297 297
298 299 300 300 300 300 300 301 301 301 301 300 300 300 299 299 299 299 299 298 298 298 299 299 299 299 299 298 298 297 297 297 296 296 296 295 295 295 295 295 295 296 296 296 297 297 298 298 299 299 299 299 299 299 299 298 298 298 299 299 300 300 300 300 300 300 301 301 301 301 300 299 298 297 297 297 297 297 296 296 296 296 296 296 297
298 299 300 300 300 300 300 300 300 300 300 299 299 299 298 298 297 298 297 297 296 296 297 297 297 297 297 297 296 295 295 295 294 294 293 293 292 292 292 292 292 292 292 292 292 293 293 294 295 296 296 297 297 298 298 298 298 297 297 297 298 298 298 299 299 299 299 299 300 300 300 300 299 298 297 297 297 296 296 296 296 295 296 296 296
299 299 300 300 300 300 299 299 299 299 298 298 297 297 296 296 295 295 295 294 294 294 294 294 294 294 294 294 294 293 293 293 292 292 291 291 291 290 290 290 290 290 289 289 289 290 290 290 291 291 292 292 293 294 294 296 296 297 297 297 297 297 297 297 298 298 298 298 298 299 299 300 299 299 298 297 296 296 296 296 295 295 295 295 296
299 299 299 299 299 299 298 298 297 297 296 296 295 294 294 294 293 293 292 292 292 291 292 292 291 291 291 292 291 291 291 291 291 290 290 290 290 289 289 289 289 289 289 289 289 289 289 289 289 289 289 289 289 290 290 291 292 292 293 294 295 295 296 296 296 297 297 297 297 298 298 298 299 298 298 298 297 296 296 296 295 295 295 295 295
299 299 299 299 298 298 297 297 297 296 295 294 293 292 292 291 291 291 290 290 290 290 290 290 290 290 290 290 290 290 290 290 289 289 289 289 288 288 288 288 288 288 288 288 288 288 288 288 288 288 288 288 288 288 288 288 288 289 289 290 291 292 292 293 294 295 296 296 296 297 297 297 298 298 298 298 297 297 296 296 295 295 294 294 295
298 298 298 298 298 298 297 297 296 295 294 292 292 291 290 290 290 290 290 290 290 290 290 290 290 290 290 289 289 289 289 288 288 288 288 288 288 288 288 288 288 288 288 288 288 288 288 288 288 287 287 287 287 287 287 287 287 287 287 287 288 288 288 289 290 291 293 294 295 295 296 296 297 297 297 297 297 297 297 296 296 295 295 294 294
298 298 298 298 298 298 297 296 295 294 293 292 291 290 290 290 290 290 290 290 290 290 290 290 290 290 289 289 289 289 288 288 288 288 288 288 288 288 288 288 288 288 288 288 288 288 288 288 288 288 287 287 287 287 287 287 287 287 287 287 287 287 287 287 288 288 289 290 291 292 293 294 295 296 296 296 296 296 296 296 296 295 295 295 294
299 299 298 298 298 297 296 295 294 293 292 292 291 291 291 290 290 290 290 290 290 290 290 290 290 289 289 289 288 288 288 288 288 288 288 288 288 288 288 288 287 287 287 287 287 287 287 288 288 288 287 287 287 287 287 287 287 287 287 287 287 286 286 286 287 287 287 287 288 288 289 291 292 294 295 295 296 296 296 296 296 296 295 295 295
300 300 299 299 298 297 296 295 293 292 292 291 291 290 290 290 290 290 290 290 290 290 290 290 289 288 288 288 288 288 288 288 288 288 288 288 287 287 287 287 287 287 287 287 287 287 287 287 287 287 287 287 287 287 287 287 287 287 287 287 287 287 287 286 286 286 286 286 286 287 287 287 288 289 291 293 294 295 295 295 295 295 295 295 295
301 301 300 299 298 296 295 294 293 292 291 290 290 290 290 291 291 291 291 291 291 290 289 289 289 288 288 288 288 288 288 287 287 287 287 287 287 287 287 287 287 286 286 286 286 286 286 286 286 286 286 286 287 287 287 287 287 287 287 287 287 287 287 287 287 287 286 286 286 286 286 287 286 287 287 288 290 292 293 294 295 295 295 295 294
301 301 300 298 297 295 294 293 292 291 291 291 290 290 291 291 292 292 291 291 290 289 289 289 288 288 288 288 288 287 287 287 287 287 287 287 286 286 286 286 286 286 286 286 286 286 286 286 286 286 286 286 286 286 286 287 287 287 287 287 287 287 286 286 286 286 286 286 286 286 286 286 286 286 286 286 287 288 289 291 293 294 294 295 294
300 300 299 297 295 294 293 292 291 291 291 291 291 291 291 291 291 291 290 289 289 289 288 288 288 288 287 287 287 287 287 287 287 287 286 286 286 286 286 286 286 286 286 286 286 286 286 286 286 286 286 286 286 286 286 286 286 286 286 286 286 286 286 286 286 286 286 286 286 286 286 286 286 286 286 286 286 286 286 287 289 290 292 294 294
299 298 297 296 295 294 293 292 292 292 292 292 292 291 291 290 290 289 289 288 288 288 288 288 287 287 287 287 287 287 287 287 287 286 286 286 286 286 286 286 286 286 286 286 286 286 286 286 286 286 286 286 286 286 286 286 286 285 285 285 285 285 285 285 285 285 286 286 286 286 286 286 286 286 286 286 286 286 286 286 286 287 288 290 292
299 298 297 296 296 294 294 293 293 293 292 292 291 291 290 290 289 288 288 288 288 288 288 287 287 287 287 287 287 287 287 287 286 286 286 286 286 285 285 285 286 286 286 286 286 286 286 286 286 286 286 286 286 286 286 285 285 285 285 284 284 284 284 284 284 285 285 285 285 285 286 286 285 286 286 286 286 286 286 286 286 286 286 286 288
299 297 296 296 295 295 294 294 293 292 291 290 290 289 289 288 288 288 288 287 287 288 288 288 288 288 288 288 288 287 287 287 287 286 286 286 285 285 285 285 285 285 285 285 286 286 286 286 286 286 286 286 285 285 285 285 284 284 284 284 284 284 284 284 284 284 284 284 284 284 285 285 285 285 285 285 285 285 286 286 286 286 285 285 285
298 296 296 296 296 295 294 293 292 290 289 289 288 288 288 288 288 287 287 288 288 288 288 288 288 288 288 288 288 287 287 287 286 286 285 285 285 285 285 285 285 285 285 285 285 285 285 286 286 285 285 285 285 285 285 285 284 284 284 284 284 284 284 284 284 284 284 284 284 284 284 284 284 284 284 284 284 284 285 285 285 285 285 285 285
297 296 296 296 296 296 294 292 290 289 288 288 288 288 288 288 288 288 288 288 288 288 288 288 288 288 288 288 287 287 287 286 286 286 285 285 285 285 285 285 285 285 285 285 285 285 285 285 285 285 285 285 285 285 285 285 284 284 284 283 283 283 283 283 284 284 284 284 284 283 283 283 283 283 283 283 283 284 284 284 285 285 285 285 285
298 297 297 297 296 295 293 291 289 289 289 288 288 288 288 288 288 288 288 289 289 289 289 289 289 288 288 288 288 287 287 286 286 285 285 285 285 285 285 284 285 285 285 285 285 285 285 284 285 285 285 285 285 285 285 285 284 284 283 283 283 283 283 283 283 283 284 284 284 284 284 284 283 283 283 283 283 283 283 283 284 284 284 285 285
298 297 297 296 296 294 292 290 289 289 289 289 289 289 289 289 289 289 289 289 289 289 289 289 289 288 288 288 288 288 287 286 286 285 285 285 284 284 284 284 284 284 284 284 284 284 284 284 284 285 285 285 285 285 284 284 284 283 282 282 282 282 283 282 282 282 283 284 284 284 284 284 284 283 283 283 283 283 283 283 283 283 284 284 284
297 297 297 296 296 295 292 291 290 290 290 290 290 290 290 290 289 289 289 289 289 289 289 289 288 288 288 288 288 288 287 286 285 285 284 284 284 284 284 284 284 284 284 284 284 284 284 284 284 284 284 285 285 284 283 283 283 282 281 280 280 281 282 282 283 282 282 283 283 283 283 283 283 283 283 283 283 283 282 282 283 283 283 283 284
296 296 295 295 294 294 293 292 291 292 291 291 291 291 290 290 290 289 289 289 289 289 289 288 288 288 288 288 288 287 286 285 284 284 284 284 283 283 283 283 283 283 283 283 284 284 284 284 284 284 284 284 284 283 282 282 281 280 279 278 278 279 280 280 281 281 281 281 281 281 281 282 282 282 282 282 282 282 282 282 282 283 283 283 283
294 293 293 293 293 293 293 292 292 292 292 291 291 291 290 290 290 289 289 289 289 289 288 288 288 287 287 287 287 286 285 284 284 284 283 283 283 283 283 283 283 283 283 283 284 284 284 284 283 283 283 283 283 282 280 280 279 278 277 276 276 276 276 277 278 279 279 279 279 279 279 280 281 281 280 281 281 281 281 281 282 282 283 283 283
292 292 292 292 292 292 292 292 292 292 291 291 290 290 290 290 289 289 289 289 289 289 288 287 287 287 287 287 286 285 284 283 283 283 283 282 282 282 282 282 282 283 283 283 283 284 283 283 283 282 282 283 282 280 279 278 277 276 275 274 273 273 273 274 276 276 276 276 277 277 277 278 279 279 279 279 279 279 279 280 281 281 282 282 283
291 291 291 291 291 291 291 291 291 291 291 290 290 290 290 290 289 289 289 289 289 288 287 287 287 286 286 285 284 283 283 283 283 282 282 282 282 282 282 282 282 283 283 283 283 283 282 282 282 281 280 281 281 279 277 277 275 274 273 272 271 272 272 273 274 274 274 275 275 275 275 276 276 277 277 277 276 277 278 279 280 281 282 282 283
291 291 290 290 290 290 290 290 290 290 290 290 290 290 290 289 289 289 289 289 288 287 287 287 287 286 285 284 283 283 283 283 282 282 282 282 282 282 282 282 282 282 282 282 282 282 282 281 281 280 279 280 280 278 275 275 274 272 272 271 270 270 270 270 271 271 272 272 273 273 273 273 274 275 275 275 275 276 277 277 278 279 280 281 282
290 290 290 290 290 290 290 290 290 289 289 289 289 289 289 289 289 289 289 288 287 287 287 286 286 285 284 283 283 283 282 282 282 282 282 281 281 281 282 282 281 282 282 282 281 281 281 279 279 279 277 277 278 277 274 273 273 272 271 270 269 269 268 268 269 269 269 270 270 270 270 271 272 272 273 274 274 275 276 276 277 278 279 279 280
290 290 290 290 290 290 290 289 289 289 289 289 289 289 289 289 289 288 288 287 287 287 287 286 285 284 283 283 282 282 282 281 281 281 281 281 281 281 281 281 281 281 281 281 280 280 280 278 277 277 276 275 275 275 273 272 272 271 270 269 268 268 268 268 268 268 268 269 269 269 270 270 271 271 272 273 274 275 275 275 275 276 277 278 279
290 290 290 289 290 289 289 289 289 289 289 289 289 289 289 288 288 288 287 287 287 287 286 286 285 284 283 282 282 282 281 281 281 281 281 281 281 281 281 281 281 280 280 280 279 278 278 277 276 275 274 273 273 273 272 271 271 270 269 268 267 267 267 268 268 268 268 268 268 269 269 270 271 272 272 273 274 274 275 275 276 276 276 276 277
290 290 289 289 289 289 289 289 289 289 289 289 289 288 288 288 287 287 287 287 287 286 286 286 285 283 283 282 282 281 281 281 281 280 281 281 281 280 280 280 280 280 280 279 279 277 277 276 275 274 273 272 272 272 271 270 270 269 269 268 267 267 267 268 268 268 268 269 269 269 270 270 270 271 272 272 272 273 274 274 275 276 276 276 277
289 289 289 289 289 289 289 289 289 289 289 288 288 288 288 287 287 287 286 286 286 286 285 284 283 282 282 282 281 281 280 280 280 280 280 281 280 280 280 280 280 279 279 278 278 276 275 275 274 273 272 272 272 271 270 270 269 269 269 268 267 268 268 268 269 269 269 269 269 270 270 270 271 271 271 272 272 273 273 273 274 275 276 277 277
289 289 289 289 289 289 289 289 289 289 288 288 288 288 287 287 286 286 286 286 285 285 284 283 282 282 282 281 281 280 280 280 280 280 280 280 280 279 279 279 278 278 278 277 276 275 274 274 273 273 272 272 272 271 270 270 269 269 268 268 268 269 269 269 270 270 270 270 270 270 271 271 271 272 272 272 273 273 273 274 274 275 276 277 277
289 289 289 289 289 289 288 288 288 288 288 288 287 287 287 286 286 286 286 285 285 285 284 283 282 282 281 281 280 280 280 279 279 279 279 279 279 279 279 278 277 277 277 276 275 274 273 273 273 273 273 272 271 270 270 270 269 269 268 268 269 269 270 270 270 270 271 271 271 272 272 273 273 273 273 273 274 274 274 274 274 275 275 276 277
289 289 289 289 289 288 288 288 288 288 288 287 287 286 286 286 285 285 285 285 285 284 283 282 282 281 281 280 280 280 279 279 279 279 279 279 278 278 278 277 276 276 275 275 274 273 272 272 273 272 272 271 269 268 269 269 269 269 269 269 270 270 271 271 271 271 272 272 273 273 273 274 274 274 274 274 274 273 273 273 274 274 274 275 275
289 289 289 288 288 288 288 288 288 287 287 287 286 286 286 285 285 285 285 284 283 282 282 282 281 281 280 280 279 279 279 279 279 278 278 278 278 277 277 277 276 275 275 274 274 273 272 272 272 270 269 268 267 267 268 268 268 269 269 270 271 271 271 272 272 272 272 273 273 273 274 274 274 274 274 273 273 273 273 273 273 274 274 275 275
289 289 288 288 288 288 288 288 288 287 287 286 286 285 285 285 285 284 284 283 282 281 281 281 281 280 280 279 279 279 279 278 278 278 278 278 277 277 276 276 275 275 274 274 274 273 273 272 270 268 267 267 267 268 268 268 268 269 270 271 271 272 272 272 272 273 273 273 273 274 273 274 274 274 274 274 274 274 273 273 274 274 274 274 275
289 288 288 288 288 288 287 287 287 287 286 286 285 285 285 284 284 283 283 282 281 281 281 281 280 280 279 279 278 278 278 278 278 278 278 277 277 276 276 276 275 275 274 274 274 272 272 270 268 267 267 268 268 268 268 268 269 270 271 271 272 272 273 273 273 273 274 274 274 274 274 274 274 274 274 274 274 274 274 273 273 273 274 274 275
288 288 288 287 287 287 287 287 286 286 286 285 285 284 284 284 283 283 282 281 281 281 281 280 279 279 278 278 278 278 278 278 278 278 277 277 276 276 276 276 275 275 274 274 272 271 270 269 267 267 268 268 268 268 269 269 270 271 272 273 273 273 273 273 274 274 274 274 274 274 274 274 274 274 274 274 274 274 274 274 274 274 274 274 275
288 288 287 287 287 286 286 286 286 285 285 284 284 283 283 283 283 282 281 280 280 280 280 279 279 278 278 278 277 277 277 277 277 277 277 277 276 276 275 275 275 275 274 274 272 271 270 269 268 268 268 268 268 269 269 269 270 272 273 274 274 274 274 274 274 275 275 275 275 274 274 274 274 274 274 274 274 274 274 274 274 274 274 274 275
288 287 287 287 286 286 286 285 285 284 284 284 283 283 282 282 281 281 280 280 280 280 279 279 278 278 277 277 277 277 277 277 277 277 276 276 276 276 276 275 275 275 275 275 274 273 272 270 269 268 268 268 269 269 269 269 270 272 273 273 274 274 274 274 275 275 275 275 274 274 274 274 274 274 274 274 274 274 274 274 274 274 274 274 274
Wind_Speed
17 16 16 15 15 14 13 13 12 11 11 10 9 9 9 9 8 9 9 9 7 6 4 2 1 3 5 6 7 8 8 9 10 11 11 11 11 11 11 10 10 10 11 12 13 14 16 17 19 21 22 23 25 25 25 25 24 25 26 28 29 29 29 29 28 29 29 31 32 33 34 35 36 36 36 36 35 35 35 34 32 31 30 28 27
19 20 20 20 20 20 19 19 19 19 19 18 18 17 16 16 16 16 15 14 14 13 12 10 8 6 3 1 2 5 6 7 9 10 11 12 13 13 14 14 14 13 14 14 14 14 14 15 16 18 20 22 24 25 24 24 24 24 26 28 29 30 29 29 29 29 30 31 32 33 34 36 38 38 38 38 38 38 37 36 34 34 33 31 29
23 24 25 25 25 25 26 26 26 26 26 26 25 25 24 24 23 22 21 20 19 17 16 15 13 11 8 6 5 2 1 2 4 5 7 8 9 11 13 14 16 17 18 19 19 19 19 19 18 17 17 18 20 22 23 24 24 25 26 27 28 30 30 29 30 30 30 30 31 32 32 32 34 37 39 40 40 39 39 38 37 36 35 34 33
25 27 28 29 29 30 31 31 31 31 32 32 31 31 30 30 28 27 26 25 24 22 20 18 15 13 12 10 9 7 6 4 2 2 2 2 3 4 5 7 10 12 16 18 20 22 23 23 23 21 19 17 17 19 21 22 23 24 25 26 28 30 30 30 30 30 31 30 30 30 28 27 29 34 38 38 39 40 40 40 39 38 37 36 36
26 28 29 31 32 32 33 33 33 33 34 34 33 32 32 31 30 29 29 28 27 26 24 21 18 17 15 13 11 10 9 8 8 7 6 5 4 3 2 1 2 4 7 10 14 17 20 22 24 24 24 22 20 19 19 19 21 22 23 25 27 28 29 30 30 30 31 32 32 30 26 24 25 29 32 32 33 36 38 39 39 39 39 38 38
26 28 29 31 32 32 32 32 31 31 32 31 30 29 28 28 27 26 26 26 26 26 24 22 21 20 18 16 15 13 13 14 14 13 12 11 10 8 6 4 2 1 2 4 6 9 12 16 19 21 23 23 23 22 21 20 20 20 21 22 24 25 27 29 30 30 31 32 34 35 33 30 26 24 25 26 28 30 31 33 36 38 39 40 39
26 27 28 29 30 30 30 30 29 29 28 27 25 25 24 24 23 23 23 23 23 23 21 20 20 19 18 17 17 16 16 16 16 14 14 14 13 12 11 9 7 5 3 2 2 4 6 9 11 14 17 20 22 23 23 23 23 22 21 21 21 22 23 27 29 29 31 33 34 36 38 39 37 33 29 27 26 27 28 28 30 33 36 39 39
25 26 27 28 28 28 28 27 26 26 24 23 23 22 22 22 21 21 21 22 21 20 19 19 19 18 18 17 16 17 16 16 14 13 13 13 13 13 13 12 11 10 9 8 6 4 4 5 7 9 11 14 17 19 21 22 24 24 23 22 22 22 22 25 27 27 30 33 33 35 37 39 41 42 40 36 31 31 33 32 31 31 33 36 35
23 24 25 26 26 25 25 24 24 23 22 21 21 21 20 20 19 19 19 20 19 18 18 18 17 17 16 16 15 16 16 15 13 12 12 12 12 13 13 13 12 12 12 12 11 9 7 6 6 7 8 10 12 15 17 19 21 23 24 24 23 23 23 23 25 26 29 31 32 35 36 37 39 41 43 44 42 38 38 37 35 33 34 35 34
22 23 24 24 23 23 22 21 21 20 20 19 19 18 18 17 16 16 17 17 17 16 16 16 16 15 14 14 14 14 14 12 11 11 12 12 12 12 13 12 12 12 12 12 12 11 10 9 8 8 9 10 11 13 15 17 19 21 23 24 25 26 25 25 25 26 27 29 31 33 36 37 39 40 41 43 44 44 42 42 41 38 39 40 38
22 23 23 22 21 20 19 19 19 18 18 16 16 15 14 14 12 13 14 14 13 13 13 13 13 12 13 12 12 12 11 9 9 10 11 11 11 12 13 12 12 11 11 10 10 11 11 11 10 10 10 11 12 13 14 16 17 19 21 23 24 26 27 27 27 27 27 28 30 31 34 36 38 40 40 39 41 43 44 45 44 42 43 43 42
22 22 21 20 19 18 16 16 16 15 14 13 13 12 11 11 10 10 10 10 10 10 10 10 10 10 11 10 10 10 9 9 9 10 10 11 11 12 11 11 11 10 10 10 9 10 10 10 11 11 12 12 13 13 13 14 16 18 19 21 23 25 26 27 28 29 29 30 30 31 32 34 36 38 39 39 41 42 43 45 45 42 44 45 42
21 20 19 18 16 15 14 14 14 12 12 11 10 9 8 8 7 7 8 9 8 8 8 9 9 9 9 9 9 10 10 10 11 11 11 11 11 11 11 11 12 12 12 12 12 12 12 12 12 12 13 14 14 14 14 14 15 16 18 20 22 23 25 26 28 29 30 30 32 32 32 33 34 34 35 37 39 41 42 45 45 43 45 46 43
19 19 17 16 14 13 12 11 10 9 9 8 7 6 5 5 5 5 7 8 7 7 7 8 9 9 9 8 8 8 9 10 10 11 12 12 13 13 13 14 14 15 15 15 15 15 14 14 14 14 15 15 15 16 16 16 15 16 17 19 20 22 23 25 27 28 29 30 31 33 34 34 35 34 33 35 36 38 40 43 44 44 45 46 45
18 17 16 14 12 11 10 9 8 7 6 5 5 5 4 4 5 5 7 8 7 7 8 8 10 10 9 8 8 8 8 9 9 10 11 12 13 13 14 15 15 16 17 17 17 16 16 16 16 16 16 16 17 17 18 18 18 17 17 18 18 20 22 24 26 28 29 30 31 32 34 36 36 35 35 34 34 35 37 38 39 41 43 44 45
17 16 14 12 11 9 8 7 6 5 5 5 6 6 5 6 6 7 8 8 8 8 9 10 10 10 10 9 9 8 8 8 9 9 10 11 12 13 14 15 15 16 16 17 18 18 18 18 18 18 18 18 19 19 19 19 20 20 20 20 19 19 20 21 22 25 28 30 30 31 33 35 36 36 36 37 36 35 35 35 36 38 40 41 42
16 15 13 11 10 8 7 6 5 5 5 5 6 6 6 6 7 7 8 8 8 8 9 10 10 10 10 9 8 8 7 7 8 9 9 10 10 11 12 13 14 15 16 17 18 19 19 20 20 20 21 21 21 21 22 22 22 22 22 23 23 22 22 21 20 22 23 26 29 30 32 34 35 36 37 37 37 37 37 35 35 36 37 40 40
16 14 13 11 9 7 6 5 4 5 5 5 5 6 6 7 7 7 7 7 7 7 8 8 9 9 9 8 8 8 8 7 8 8 8 8 9 10 11 12 13 14 15 16 17 18 19 20 20 21 22 22 23 23 24 24 24 24 24 25 25 26 26 25 23 23 22 22 24 26 28 32 33 35 36 36 37 38 39 38 37 36 36 39 41
17 16 14 12 9 7 6 5 5 5 5 5 5 5 5 5 4 4 3 4 5 5 6 7 7 7 7 7 7 7 8 8 8 9 9 9 10 11 12 13 13 14 15 16 17 18 19 20 21 22 22 23 23 24 24 25 25 26 26 26 26 27 28 28 27 27 26 25 25 24 25 26 28 31 34 35 36 37 38 39 39 39 37 39 40
18 17 15 12 10 9 7 6 6 6 6 6 5 4 4 2 1 1 2 4 5 6 7 7 7 7 7 7 7 7 8 9 10 11 11 12 12 13 13 14 14 15 16 16 17 18 19 20 21 23 24 25 25 26 27 28 28 28 28 29 29 29 29 30 30 29 29 29 29 28 27 25 24 26 28 31 34 35 37 38 38 40 40 40 40
18 17 15 13 12 10 9 9 8 8 8 7 6 6 4 3 2 1 3 4 5 6 7 7 7 7 7 6 7 7 8 9 9 11 12 13 14 15 15 16 16 17 17 18 18 19 20 20 21 22 24 25 27 28 29 30 31 32 32 32 32 32 33 33 33 33 31 31 31 32 31 30 27 27 27 26 28 31 34 37 37 38 40 40 39
17 17 16 15 14 13 12 11 10 10 9 8 7 6 5 4 4 5 6 6 6 6 5 6 6 6 7 7 8 8 9 10 10 11 12 13 14 15 16 17 17 18 19 20 21 21 22 23 24 25 26 27 28 29 31 32 34 35 36 36 36 37 37 38 37 37 36 34 34 34 33 33 31 31 31 28 27 27 28 32 35 36 39 39 38
16 17 17 17 15 13 13 12 11 11 10 10 9 9 8 8 8 8 8 7 7 6 6 6 6 7 8 9 10 11 12 13 14 14 15 15 16 16 17 17 18 19 20 21 23 24 26 27 28 29 30 31 33 34 35 36 37 38 40 40 41 41 41 41 41 41 40 39 39 38 37 35 33 34 34 32 31 29 27 28 30 32 36 39 38
18 18 18 17 16 15 15 14 13 13 13 13 12 11 11 10 9 9 8 8 7 7 7 6 7 8 9 10 11 13 14 15 16 17 17 18 18 18 19 20 20 21 22 23 25 27 29 30 32 33 35 36 37 38 39 40 40 41 42 43 43 43 43 44 44 44 44 43 43 43 42 39 37 37 37 36 34 32 31 30 30 29 30 33 36
21 20 20 20 19 18 17 16 15 14 14 14 14 13 13 11 10 9 8 8 7 7 7 7 8 9 10 11 13 14 15 16 17 17 18 18 19 20 21 22 23 24 26 27 28 30 32 34 36 37 39 40 41 42 43 43 43 43 43 43 44 44 44 44 45 46 46 45 45 46 46 44 43 42 41 39 37 36 34 33 33 32 30 29 31
23 23 22 21 20 19 17 16 15 16 16 16 16 15 14 12 10 9 9 9 8 8 8 8 10 11 12 13 14 15 16 17 18 18 18 19 20 21 22 23 25 26 28 30 31 33 35 37 39 41 42 44 44 45 46 46 46 45 45 45 44 44 45 45 45 46 46 47 47 48 48 47 47 46 46 44 42 40 39 37 36 35 33 31 30
25 24 23 21 19 18 17 16 17 17 17 17 16 15 13 11 10 10 10 10 10 10 10 11 12 13 14 15 16 18 19 19 20 20 20 21 21 22 24 25 27 28 29 31 33 35 37 39 41 43 45 46 47 48 49 49 49 48 47 47 46 46 46 47 47 47 47 48 48 49 50 49 49 49 49 48 46 44 43 42 40 38 36 34 34
24 24 22 20 19 19 19 18 18 18 17 16 15 13 12 11 11 11 12 12 12 13 13 14 15 16 18 19 20 21 21 22 22 22 23 23 24 25 27 28 29 30 32 34 35 37 39 41 42 44 46 47 48 50 50 50 49 49 49 49 49 49 49 49 49 49 49 49 49 50 51 51 51 51 50 50 49 48 46 46 44 42 39 37 36
23 24 23 21 20 20 20 20 19 18 17 16 14 14 13 13 13 13 13 14 15 16 16 17 18 20 22 23 23 24 25 25 25 25 25 26 27 28 30 31 32 33 35 36 38 40 42 43 44 45 46 47 48 49 49 48 49 49 50 50 50 50 50 51 51 51 51 51 50 51 51 52 52 51 51 50 50 49 47 48 48 46 43 41 39
21 23 23 21 20 20 20 20 19 18 17 16 15 15 15 15 15 15 16 17 19 19 19 19 20 22 24 25 26 27 27 27 27 27 27 28 30 31 32 33 34 35 37 38 40 42 43 45 46 47 47 47 48 48 47 47 47 49 50 51 52 52 52 53 54 54 55 54 53 52 52 52 52 52 51 50 50 48 47 48 49 48 46 44 42
18 20 20 20 19 19 20 20 19 18 17 16 15 15 16 16 17 17 18 19 20 21 20 20 22 23 25 27 28 29 30 29 29 28 29 31 32 34 35 35 36 37 39 40 42 43 45 46 46 47 48 48 48 48 48 48 49 49 49 50 52 54 55 55 56 56 57 58 57 55 54 53 53 52 52 51 50 49 47 47 48 48 47 46 44
16 17 18 18 18 19 20 20 19 18 17 17 17 17 18 18 18 19 20 21 22 22 21 22 23 25 27 29 30 31 31 31 30 30 31 33 35 36 37 38 38 39 40 41 43 44 45 45 46 47 48 49 50 50 50 51 52 52 51 50 51 54 56 57 58 58 59 60 60 59 57 56 55 54 52 52 51 50 49 47 47 47 48 47 47
13 14 14 15 15 16 18 18 17 17 18 18 19 19 20 19 19 20 22 24 24 23 23 24 25 26 27 29 31 32 32 31 30 31 33 35 36 37 38 39 40 41 42 43 44 44 45 45 46 47 49 50 52 53 53 54 54 54 53 51 51 55 57 58 59 60 60 60 59 59 59 58 57 55 53 51 51 51 50 48 47 47 47 49 49
10 11 12 12 13 14 16 17 17 18 19 19 20 21 22 22 22 24 25 26 25 24 24 25 25 26 28 30 32 32 31 30 31 32 35 36 37 38 39 40 41 42 43 44 44 45 45 46 47 49 50 52 54 54 54 55 54 53 52 50 51 53 55 56 59 59 58 58 58 58 58 59 58 56 54 52 51 51 50 49 48 47 47 48 49
9 10 11 12 13 14 16 17 18 19 20 21 22 24 25 26 26 27 27 26 26 25 24 25 25 27 29 31 31 30 30 31 33 35 37 38 38 39 40 40 41 42 43 44 44 45 46 47 48 50 51 54 55 53 53 53 52 50 48 46 46 49 52 55 59 59 58 57 58 58 58 58 59 58 56 53 51 49 48 48 49 49 50 50 50
7 7 8 9 11 14 16 17 18 19 21 23 24 25 27 27 27 27 27 26 25 24 24 25 27 29 31 31 30 30 31 32 35 37 38 39 40 40 41 41 42 42 43 44 44 45 47 48 49 50 51 55 55 52 51 51 49 46 44 42 42 45 48 52 55 55 54 54 55 54 54 55 56 57 57 53 47 44 44 46 48 50 50 50 51
6 8 10 12 13 16 18 20 21 22 23 23 24 24 24 24 25 26 26 25 24 24 25 28 30 31 30 30 30 30 32 35 37 38 39 40 41 41 41 41 42 43 44 45 45 46 47 48 50 50 50 53 55 52 49 48 45 42 40 39 39 41 43 45 47 48 47 48 49 48 47 47 49 50 51 48 42 39 42 45 48 50 51 52 53
11 12 14 14 15 17 19 22 23 23 23 23 23 23 23 23 25 25 24 23 24 25 28 30 30 30 30 30 30 32 34 36 38 39 39 40 41 41 41 41 42 44 45 45 46 48 48 48 49 49 49 50 53 50 45 44 42 38 35 35 35 37 39 40 42 43 41 42 43 42 39 39 42 43 43 41 37 37 40 44 47 50 52 54 57
13 13 14 16 17 19 20 22 23 24 24 23 24 24 24 24 25 24 23 24 25 28 29 30 30 30 30 30 31 33 36 37 38 38 39 40 41 41 41 41 42 44 45 46 46 48 49 48 47 48 47 46 48 48 43 39 37 33 30 30 32 36 38 38 40 41 40 38 39 39 37 36 38 39 39 37 35 35 38 42 46 48 52 56 58
12 14 17 19 20 21 21 22 23 24 24 25 25 25 25 25 24 23 23 25 27 30 31 31 32 31 31 31 33 35 36 37 38 38 39 40 40 40 41 42 43 44 45 46 46 46 48 48 46 46 45 43 44 44 39 35 32 29 26 27 31 34 37 39 40 42 42 42 41 39 37 34 33 34 35 35 35 35 36 39 42 45 51 56 57
15 16 19 21 21 21 21 22 24 25 26 26 26 26 25 24 22 23 25 27 29 30 31 32 32 31 31 33 35 36 37 37 37 38 39 39 39 39 40 42 43 43 44 45 45 45 46 47 45 44 44 41 39 38 35 31 29 27 26 27 31 34 36 39 42 43 44 45 43 40 38 36 35 37 38 38 39 39 38 40 42 45 47 49 49
16 17 19 21 22 22 22 23 25 27 28 28 27 26 25 23 23 25 27 28 29 30 31 31 31 31 32 34 35 36 36 37 37 37 38 38 38 38 39 41 41 42 43 44 45 44 44 45 44 42 42 39 35 32 31 29 29 29 28 28 31 34 35 37 41 43 44 45 45 44 44 43 41 40 39 39 40 39 39 41 44 45 45 44 44
15 17 20 21 23 24 23 25 27 28 29 28 27 26 24 24 25 27 28 29 30 30 31 31 31 32 33 35 36 36 36 36 36 36 37 37 37 38 39 39 39 40 42 43 43 42 42 43 43 42 39 36 32 30 30 31 31 32 31 30 31 33 34 35 38 42 44 45 45 45 45 44 41 40 39 39 40 40 40 41 42 42 43 44 44
17 18 20 23 25 25 24 25 27 28 29 28 27 26 25 25 27 28 29 30 31 31 32 31 31 33 34 35 36 35 35 35 35 35 36 36 37 37 38 38 37 38 40 41 41 40 40 41 42 41 38 34 32 33 34 34 34 35 35 33 31 31 32 33 35 39 40 41 42 42 41 40 40 40 40 40 41 42 42 43 43 43 44 44 45
19 20 22 24 25 25 25 26 27 28 29 28 26 26 26 27 28 29 30 31 32 32 31 31 32 34 35 35 35 35 35 34 34 34 35 36 36 37 37 36 36 36 37 39 39 39 38 39 40 39 38 37 37 39 38 37 38 38 36 33 31 31 31 32 34 37 38 39 40 40 38 38 38 38 40 41 42 41 40 41 41 42 43 44 45
20 21 22 23 24 26 26 27 28 28 28 28 27 27 28 28 29 30 31 31 31 31 31 31 33 35 35 35 35 35 34 33 33 33 34 34 34 35 35 35 34 34 35 36 37 38 38 38 39 39 41 42 42 43 43 42 41 39 37 34 34 34 35 34 35 38 39 40 41 40 38 37 37 37 39 41 42 42 40 39 39 40 41 42 44
22 23 23 23 23 25 26 27 28 28 28 28 28 28 29 30 30 31 31 31 31 31 31 32 34 35 35 34 34 34 34 33 32 32 33 33 32 32 33 33 32 32 34 35 36 37 38 38 40 41 43 44 44 44 45 44 41 40 39 39 40 40 40 39 40 42 43 44 44 43 42 41 39 39 40 41 43 43 41 40 40 40 41 43 44
24 24 23 23 24 25 27 28 28 28 28 29 29 29 29 30 30 31 31 31 30 31 32 33 34 34 34 33 33 33 33 32 32 32 32 32 31 30 31 30 29 29 32 35 37 38 39 39 40 42 44 45 45 44 44 43 41 40 40 40 40 41 41 42 44 45 46 46 44 43 42 41 39 39 41 43 44 44 43 43 43 42 42 42 42
24 24 24 24 24 26 27 28 28 29 29 29 28 28 29 29 30 31 31 30 30 31 32 33 33 33 33 33 32 32 32 31 32 32 32 31 30 28 29 30 28 27 29 33 36 37 37 37 39 40 42 43 44 43 41 39 38 36 35 35 37 38 39 40 41 41 42 43 42 39 39 39 39 40 43 44 45 46 46 46 45 43 41 41 41
23 24 25 25 26 27 28 28 29 29 29 29 28 27 28 29 30 30 30 30 30 31 32 33 33 32 32 32 32 31 31 30 31 32 32 31 29 26 25 27 28 27 26 29 32 34 34 34 35 37 37 38 40 40 38 36 35 33 32 33 35 35 35 35 35 36 38 40 39 38 39 39 40 42 43 44 45 47 47 47 45 44 42 41 41
23 25 25 26 28 28 28 29 29 29 29 28 27 26 27 28 29 29 29 30 30 32 33 33 32 32 32 32 32 31 30 30 30 31 31 32 31 28 23 21 24 27 27 27 29 31 30 29 30 34 35 34 35 36 35 35 35 35 34 33 33 33 33 33 33 35 38 39 39 40 42 42 42 42 43 44 45 46 46 46 45 44 44 43 42
Wind_Direction
89 93 95 96 97 97 96 97 97 99 99 99 97 89 82 79 77 75 70 63 63 65 60 59 187 210 223 227 229 232 232 232 230 228 229 232 235 236 237 239 240 242 245 250 256 261 265 267 267 267 270 273 276 278 279 280 281 282 283 282 280 278 278 278 276 272 265 259 256 255 253 251 250 249 249 250 251 250 251 252 254 255 255 256 257
98 97 97 97 97 97 96 96 95 93 92 90 87 84 83 84 83 79 75 74 72 69 64 63 66 68 67 170 214 228 232 234 236 236 237 239 241 242 242 242 243 244 244 244 248 251 255 261 265 269 271 273 274 275 277 277 278 279 278 277 277 276 276 276 274 270 265 262 261 259 257 255 252 251 252 252 251 250 251 252 253 254 255 256 257
98 97 97 96 95 96 94 91 90 88 87 87 86 86 85 84 83 82 81 80 78 75 72 69 65 60 54 51 50 52 164 196 217 223 231 237 243 249 251 252 252 251 251 250 251 251 252 252 255 259 265 270 272 272 272 273 274 275 275 276 276 275 273 272 271 270 267 264 261 257 257 259 258 256 255 254 252 252 253 253 253 254 255 256 256
96 96 97 97 96 96 94 91 90 89 88 87 85 84 82 81 80 80 79 78 77 76 74 71 69 66 62 58 54 55 62 66 90 140 167 189 209 234 250 256 258 257 257 256 256 255 255 254 253 253 255 260 266 270 271 270 270 270 272 273 273 272 271 271 271 271 268 263 257 253 253 257 259 259 260 259 257 255 255 254 254 254 254 255 256
97 97 97 97 96 95 93 92 90 88 85 83 82 81 80 79 78 77 76 76 75 74 72 72 72 70 69 68 66 67 73 76 77 78 80 80 82 88 104 195 240 251 257 259 259 259 259 257 256 254 253 252 255 261 266 269 269 269 270 271 271 272 274 274 273 271 269 267 260 253 250 252 257 263 267 267 263 260 259 257 256 255 255 254 255
100 99 99 97 96 95 92 90 86 83 81 80 80 79 78 78 77 76 75 75 74 74 74 74 73 74 74 75 74 72 72 70 65 61 59 62 65 66 65 66 77 152 226 244 252 255 257 259 260 258 255 253 252 253 257 261 265 268 271 272 272 274 276 276 274 272 272 270 265 259 255 254 259 267 273 276 274 270 266 262 260 257 256 255 255
105 103 102 100 98 96 92 88 84 81 80 80 79 78 77 77 76 75 74 73 74 74 75 74 74 74 73 72 70 67 64 60 56 51 49 51 55 59 58 51 47 43 31 350 281 260 254 255 257 260 260 257 255 253 253 255 258 262 265 269 272 273 275 275 275 275 273 270 268 266 262 259 258 261 267 275 281 278 273 270 267 261 257 255 255
109 107 105 102 99 95 91 86 83 82 81 78 75 73 73 73 72 73 72 72 72 71 71 69 68 69 68 67 65 64 63 61 58 53 49 47 46 52 54 50 44 37 29 22 11 346 307 282 267 261 260 261 261 258 255 254 254 254 256 260 265 267 270 272 274 274 271 270 270 270 268 264 261 259 260 265 271 276 274 272 270 268 263 259 258
113 110 107 103 99 94 89 86 84 83 80 74 71 69 67 67 68 69 69 71 71 68 65 64 62 63 64 62 62 62 62 62 60 57 55 50 45 47 50 50 48 41 33 28 24 17 0 337 313 291 274 268 266 265 262 259 255 253 252 253 256 258 261 265 269 269 269 270 271 271 270 269 266 263 260 260 262 268 272 271 270 270 268 265 263
117 113 108 103 98 93 88 86 84 81 76 72 70 67 64 62 60 60 63 67 68 67 61 60 59 56 56 58 60 62 64 64 62 60 58 52 47 46 45 47 48 44 38 32 26 22 16 7 350 329 311 296 285 278 273 269 264 259 256 253 253 254 255 258 262 264 265 267 268 269 270 269 269 266 263 261 262 264 267 269 270 270 270 269 269
120 115 110 104 98 94 89 86 82 78 75 72 69 66 62 61 55 52 57 60 61 60 55 55 55 49 50 54 55 60 63 59 54 53 52 46 42 41 38 38 41 42 40 34 27 22 16 12 7 357 344 330 317 304 292 283 277 271 266 261 257 255 254 255 257 259 261 262 263 265 267 268 269 269 268 267 266 266 267 269 270 271 272 273 273
124 118 112 107 102 98 93 88 85 82 77 73 68 66 64 64 59 54 58 61 58 56 52 53 54 50 50 48 47 50 49 42 40 42 42 38 36 35 32 30 30 31 32 29 26 22 15 9 5 1 356 350 343 333 316 300 290 282 276 272 267 263 260 258 257 257 258 259 260 261 264 267 268 269 271 270 269 269 270 271 272 273 273 274 274
129 122 117 113 108 103 97 90 86 80 74 70 66 65 64 66 65 57 63 71 67 61 58 56 56 55 53 47 44 43 38 35 34 35 35 32 31 27 22 21 20 20 22 22 20 17 11 6 1 358 355 351 349 345 339 326 311 299 290 283 276 271 268 265 262 260 258 258 258 258 260 263 266 268 270 271 271 271 270 270 272 272 272 273 274
134 129 125 121 115 108 100 92 86 79 74 71 70 74 76 79 77 65 73 81 78 73 67 62 61 63 62 54 48 41 34 31 30 31 31 27 25 21 18 18 17 16 18 18 18 14 9 6 1 358 354 351 348 345 343 341 334 324 313 302 292 283 275 271 268 265 263 260 259 257 257 257 260 263 266 268 270 271 270 270 272 272 272 272 272
142 138 134 128 121 114 108 102 97 91 90 93 102 116 120 112 105 93 92 95 92 86 78 72 72 73 72 65 56 47 38 34 31 29 27 23 21 18 16 16 14 14 14 12 11 8 6 4 0 357 354 351 349 347 344 342 339 337 332 324 316 305 292 282 276 271 268 265 262 261 260 258 258 258 260 262 266 269 270 271 272 272 272 271 271
151 147 141 135 131 127 125 120 116 117 122 130 136 137 131 121 114 105 101 101 97 88 81 77 78 77 73 66 59 53 46 40 35 31 27 24 19 15 14 13 11 10 9 7 5 3 1 359 357 355 353 350 348 347 345 343 340 338 336 333 331 325 315 306 294 284 278 273 269 265 263 262 261 260 259 259 260 262 266 269 269 269 269 270 271
159 155 151 149 148 147 145 142 141 141 141 139 136 132 125 117 110 102 100 99 92 83 77 76 74 69 64 61 58 54 49 44 41 37 33 28 21 17 14 10 7 4 2 0 359 358 356 354 353 352 350 349 347 345 342 341 339 338 336 334 332 329 326 325 319 307 297 289 281 275 270 267 265 263 262 260 259 259 260 263 265 265 267 268 268
167 167 166 168 168 167 165 167 167 155 148 143 135 129 122 115 108 101 94 86 77 72 68 64 59 54 51 51 49 48 46 45 42 37 32 25 16 12 8 3 360 357 354 352 350 349 348 347 347 346 346 345 344 342 340 339 337 335 334 333 331 328 325 325 324 320 317 310 302 293 284 277 272 268 265 263 261 260 259 259 260 262 263 265 266
180 179 181 183 183 189 191 190 184 167 159 154 146 138 128 117 107 93 70 53 50 45 41 36 34 33 32 30 26 24 22 18 16 13 9 4 359 358 356 353 351 348 345 343 341 339 339 338 338 337 337 337 337 336 335 334 333 332 330 329 328 326 323 322 322 320 319 317 314 310 304 296 288 279 273 268 264 262 260 259 259 259 259 261 264
189 188 192 195 198 207 207 203 198 186 181 178 173 172 165 161 151 61 11 16 16 10 8 7 9 13 15 16 13 8 5 359 356 353 350 348 346 345 345 344 343 342 341 339 338 336 335 334 334 333 332 332 331 331 330 328 327 327 326 325 324 322 319 318 317 316 316 316 313 312 310 309 306 297 288 280 273 267 263 260 259 259 258 259 261
195 197 201 205 210 215 214 210 205 199 196 192 190 192 191 201 222 287 323 334 337 339 346 349 354 360 359 1 360 357 355 350 346 343 339 339 337 336 337 337 339 339 338 338 337 337 335 334 332 331 330 329 328 327 326 325 323 323 322 321 320 318 316 315 314 312 312 311 310 309 308 308 309 306 302 296 288 279 272 266 261 259 258 258 260
202 205 209 213 216 217 217 214 207 203 202 199 199 206 216 236 258 276 288 294 301 309 320 327 332 335 335 336 338 339 338 335 334 333 332 332 332 332 332 332 334 335 335 335 335 333 333 331 330 329 328 326 325 323 322 321 320 319 318 317 316 314 313 311 310 309 308 307 305 304 303 304 305 304 302 302 300 294 286 277 270 264 261 259 259
212 213 217 220 220 219 219 215 210 209 212 213 217 226 236 249 258 265 269 272 279 287 294 302 309 314 319 324 327 328 329 328 328 329 329 329 329 330 330 329 330 331 331 331 330 329 328 327 327 326 325 324 322 321 320 318 317 316 314 313 312 311 309 307 305 304 304 303 302 300 299 299 300 299 299 299 299 298 296 290 283 276 269 265 262
216 219 223 224 222 221 218 215 214 215 220 224 229 235 242 248 252 255 259 263 268 274 281 292 303 313 318 322 323 324 324 324 324 325 325 326 327 327 328 328 328 327 327 327 326 325 325 324 324 323 322 321 320 319 318 316 315 313 311 310 309 307 305 304 302 301 299 298 297 296 296 296 295 294 293 294 295 296 296 294 292 288 282 276 270
219 221 224 223 224 225 220 217 219 223 229 234 237 241 245 248 251 255 260 263 265 271 282 294 305 312 314 315 316 317 317 318 318 319 320 321 322 323 324 324 324 324 324 324 323 323 322 322 321 321 320 319 318 317 316 314 313 310 308 306 305 303 301 300 298 297 296 295 294 292 291 292 292 291 289 289 290 291 292 292 292 291 290 287 282
225 225 226 227 230 229 225 225 231 235 237 239 240 243 244 247 252 257 261 264 270 280 289 297 302 305 306 307 307 308 309 310 311 314 316 317 318 319 319 320 320 320 321 321 321 321 321 321 320 320 319 318 316 315 314 312 310 308 305 303 301 299 297 296 294 293 292 292 291 290 289 288 289 288 287 287 287 288 288 288 288 289 290 290 287
232 229 228 230 233 232 230 233 237 237 236 238 239 240 242 245 250 255 261 267 276 284 290 295 298 300 302 303 303 303 304 305 308 311 314 315 315 315 316 317 317 317 318 318 318 318 319 319 318 318 317 316 315 314 313 311 309 307 306 304 301 298 296 294 292 290 289 288 288 287 287 287 287 286 286 286 286 285 285 284 284 285 287 287 286
233 228 228 233 237 235 234 236 235 232 231 233 236 239 242 245 248 253 261 270 278 285 293 301 307 311 312 311 309 308 308 309 310 312 313 313 313 314 315 315 316 316 316 316 317 317 317 316 316 315 314 314 313 313 312 311 309 309 308 306 304 301 298 296 292 290 287 286 285 284 284 285 285 285 285 284 284 284 284 283 281 282 283 283 284
230 228 232 237 239 237 236 235 232 229 230 233 238 243 244 245 251 258 269 280 288 293 300 309 316 319 318 315 313 312 312 312 313 313 312 313 313 314 314 314 314 315 315 316 317 316 316 315 314 313 312 312 311 311 310 309 309 308 307 306 304 302 300 298 295 292 289 286 284 282 281 281 282 283 283 283 282 282 282 281 280 280 281 280 280
233 233 237 240 241 240 238 234 229 229 235 240 246 251 254 258 264 272 281 288 290 294 299 306 313 316 315 313 311 310 310 311 311 311 311 311 312 312 312 312 313 313 314 315 315 315 315 314 313 312 312 311 310 309 308 306 305 304 304 303 301 300 298 297 295 293 290 288 285 283 280 279 279 279 281 281 280 280 279 279 279 279 279 278 278
234 236 238 240 243 242 238 233 231 236 242 249 256 261 266 269 271 274 278 279 281 286 293 299 306 310 310 309 308 307 308 309 308 308 309 310 310 310 310 311 311 312 313 314 314 314 314 313 312 311 311 309 308 308 307 305 303 302 300 299 297 295 294 293 292 291 290 288 287 284 282 280 278 277 276 277 279 279 278 277 276 276 276 275 274
233 236 238 242 245 245 241 236 237 245 251 257 264 268 270 272 272 271 269 270 275 281 287 293 300 304 306 306 305 305 306 306 305 306 307 308 308 309 309 309 310 311 312 312 312 312 312 311 310 309 309 308 308 307 306 305 303 302 299 297 295 292 290 288 287 287 286 286 286 285 283 281 279 277 276 275 276 277 278 277 275 274 273 272 271
236 237 238 242 245 243 240 239 245 254 258 262 266 269 271 273 271 264 261 266 271 275 281 289 296 300 302 302 302 302 303 302 302 303 304 305 306 306 307 308 309 310 310 311 311 311 311 310 309 309 308 308 308 308 306 305 303 301 299 297 294 291 289 287 284 282 282 282 282 283 282 281 280 278 277 275 274 275 276 277 277 275 272 270 269
246 247 246 247 246 243 242 246 253 259 260 262 263 264 265 264 259 255 256 262 265 268 277 287 293 296 297 298 299 299 300 299 300 302 303 304 305 305 306 307 308 309 310 310 311 310 310 310 309 309 308 308 308 307 306 305 303 301 300 298 294 291 288 286 283 282 281 280 280 280 281 281 280 279 277 276 275 274 275 276 277 276 273 270 268
255 256 253 251 249 248 249 251 254 255 254 254 255 256 256 254 251 251 254 257 260 267 279 287 290 293 294 295 297 297 297 298 300 302 304 305 305 305 306 307 308 309 309 309 310 310 310 310 309 308 308 309 309 308 307 305 304 303 302 298 294 290 287 285 284 283 282 281 281 281 281 281 280 280 279 278 277 276 276 275 275 275 273 272 268
251 253 258 262 263 264 263 261 260 256 253 252 252 252 253 252 250 251 252 255 262 273 283 288 290 292 293 294 295 295 296 299 302 304 305 306 307 307 308 308 309 309 309 308 309 309 309 309 310 310 310 310 309 309 308 307 306 305 303 298 294 291 289 288 287 286 285 284 283 283 283 282 282 281 281 280 279 278 276 274 272 271 272 272 270
267 275 278 281 280 276 272 269 267 264 260 257 256 255 254 253 251 252 254 259 270 281 287 290 291 292 293 294 295 296 299 302 305 306 307 307 308 308 309 309 309 309 308 308 309 310 310 310 311 312 312 311 310 310 310 308 306 304 303 300 297 295 292 291 291 291 290 289 287 286 286 286 285 284 284 284 282 279 275 272 270 269 268 268 268
292 287 281 281 280 275 273 271 269 265 262 259 258 256 254 253 253 256 261 269 278 285 289 291 292 292 293 294 296 299 303 305 307 308 308 308 308 309 309 309 309 308 308 309 311 311 312 312 313 314 314 312 310 310 310 307 304 304 304 301 299 296 294 294 294 294 293 292 292 292 291 290 288 287 287 287 286 281 276 273 270 269 268 267 265
291 281 276 279 281 277 274 270 265 262 259 257 256 255 253 254 256 260 267 275 283 290 293 294 294 294 295 297 299 303 306 307 308 308 308 308 308 309 309 309 308 308 309 311 312 313 313 314 315 315 315 313 311 310 309 307 306 307 307 302 298 295 293 291 292 292 292 292 292 292 292 291 290 290 290 290 288 284 280 276 272 269 268 266 264
282 275 276 279 280 278 275 269 262 258 257 255 255 254 253 254 257 263 272 283 291 296 296 296 296 297 297 300 303 306 308 308 308 308 308 308 309 309 309 309 309 309 311 312 314 314 315 315 316 316 315 314 312 309 309 309 310 311 309 302 295 293 292 292 293 294 294 294 294 293 293 292 291 291 291 290 288 285 282 280 277 273 269 267 265
278 275 276 275 275 275 273 268 261 258 257 256 255 254 254 255 261 271 282 291 295 296 296 296 297 297 299 302 306 307 308 309 309 309 308 309 309 310 309 309 309 311 312 314 314 315 316 316 316 316 315 314 312 310 312 315 314 313 313 305 297 294 295 296 296 296 297 297 295 293 292 293 292 290 290 289 287 284 281 278 275 273 273 273 272
273 273 272 270 270 271 270 267 264 261 259 257 256 255 256 262 271 282 290 295 296 296 295 295 296 297 300 304 307 308 309 309 310 310 309 309 310 309 309 309 311 313 314 315 316 317 317 316 316 315 314 313 313 314 317 320 318 317 317 309 299 295 295 296 296 295 295 295 294 294 295 297 297 294 289 287 286 284 282 277 274 272 273 274 273
266 269 269 269 268 268 267 268 266 263 260 257 256 257 262 271 281 289 294 296 296 296 296 296 296 299 303 306 308 309 310 310 310 311 310 310 310 309 309 311 313 315 315 316 317 317 317 316 315 315 314 314 316 320 324 323 321 322 320 312 301 295 293 292 293 293 293 295 296 297 299 302 303 298 291 289 289 287 284 281 278 276 274 273 272
261 266 268 268 269 268 268 268 265 262 259 257 257 261 269 279 288 294 296 297 296 296 296 296 297 300 304 307 309 310 310 311 312 312 310 310 310 310 311 313 316 317 317 317 317 318 318 317 315 314 314 317 322 326 326 324 324 323 320 313 305 300 297 296 294 293 294 297 299 301 305 307 307 302 297 294 290 286 283 281 280 278 276 274 273
262 267 268 268 268 269 269 268 265 262 260 259 261 269 278 287 292 295 295 295 294 295 295 296 299 303 307 308 309 310 311 311 312 312 311 310 311 311 313 316 318 319 318 317 317 319 319 317 316 317 320 324 327 327 325 324 324 321 318 315 312 309 308 304 297 294 297 300 302 304 305 303 300 297 296 294 291 288 286 282 280 280 277 273 271
268 273 272 268 265 266 265 265 264 262 261 263 269 278 286 291 293 293 292 292 293 294 296 298 302 305 308 309 310 310 311 311 312 311 311 311 312 313 315 317 320 320 319 318 319 320 320 320 321 322 323 324 325 323 321 320 319 317 317 319 317 315 313 307 300 297 299 301 301 301 300 299 298 298 298 297 295 293 290 285 282 280 277 274 272
277 279 275 268 263 263 263 262 262 262 265 270 277 283 288 290 290 290 290 291 293 295 297 300 304 307 309 310 310 311 311 312 312 311 310 311 312 314 316 318 321 321 320 320 321 322 324 325 324 323 321 319 319 318 316 316 316 317 318 318 316 314 312 309 305 303 303 303 303 302 301 300 300 300 300 298 295 292 289 286 285 283 280 277 276
281 279 274 268 263 262 261 261 262 265 270 275 280 284 286 287 288 288 289 291 294 296 299 302 306 308 309 310 311 311 312 312 312 311 310 311 313 315 316 318 323 324 322 324 325 325 326 325 322 319 316 314 314 314 314 314 316 315 314 313 312 311 309 307 305 306 306 305 305 304 303 301 300 300 300 298 295 291 289 287 286 285 283 280 278
279 277 272 267 263 261 261 262 265 269 273 277 281 283 284 285 287 288 289 292 294 297 301 305 307 308 309 310 311 311 312 312 311 310 310 310 313 317 318 319 323 327 327 326 325 323 322 319 315 313 312 310 310 311 312 312 312 311 309 308 307 306 304 303 303 303 303 304 304 303 304 303 302 301 298 296 294 292 290 288 286 284 282 280 278
275 272 268 265 263 262 263 265 268 271 275 278 280 282 283 284 285 287 289 293 297 301 304 306 307 308 310 311 311 311 312 312 311 310 310 311 313 317 321 322 323 326 328 327 324 322 321 317 310 307 308 307 305 307 309 310 310 310 308 305 303 303 302 301 300 299 299 300 301 302 301 300 299 297 296 296 296 294 291 289 286 285 283 280 278
273 270 267 265 264 264 265 267 270 273 275 277 279 280 281 282 284 286 290 295 300 304 306 307 308 309 310 311 311 311 311 311 310 310 311 312 313 315 318 321 323 326 328 328 325 325 327 324 316 311 310 309 309 311 312 311 311 310 307 304 303 304 304 301 298 298 299 300 300 300 300 299 297 296 296 298 299 297 293 290 286 284 283 280 278